2019-098T03:52:41.988,   1, 180,   1,    30,   4,          0,     41.948,  99289.098,    28.826,   -38.380,     1.606,    87.124, 2, 5.486E-04, -1.00,   3,  2.376E-03,  2.407E-04,  2.062E-13,  6.456E-14,  5.416E+02,  1.696E+02, 255
2019-098T03:53:11.988,   1, 180,   1,    30,   4,          0,     41.948,  99289.098,    28.829,   -38.379,     1.606,    86.822, 2, 5.486E-04, -1.00,   3,  2.757E-03,  2.713E-04,  2.160E-13,  6.501E-14,  4.890E+02,  1.472E+02, 255
2019-098T03:53:41.989,   1, 180,   1,    30,   4,          0,     41.948,  99289.098,    28.833,   -38.377,     1.606,    86.519, 2, 5.486E-04, -1.00,   3,  2.489E-03,  2.425E-04,  4.481E-14,  6.279E-14,  1.124E+02,  1.575E+02, 255
2019-098T03:54:11.989,   1, 180,   1,    30,   4,          0,     41.948,  99289.098,    28.837,   -38.375,     1.606,    86.216, 2, 5.486E-04, -1.00,   3,  2.776E-03,  2.616E-04,  7.531E-14,  6.222E-14,  1.693E+02,  1.399E+02, 255
2019-098T04:01:11.994,   1, 180,   1,    30,   4,          0,     41.948,  99289.098,    28.892,   -38.351,     1.605,    81.977, 2, 5.486E-04, -1.00,   3,  2.599E-03,  2.632E-04,  1.684E-13,  6.268E-14,  4.044E+02,  1.505E+02, 255
2019-098T04:01:41.994,   1, 180,   1,    30,   4,          0,     41.948,  99289.098,    28.896,   -38.349,     1.605,    81.674, 2, 5.486E-04, -1.00,   3,  2.678E-03,  2.450E-04,  2.791E-14,  5.907E-14,  6.504E+01,  1.377E+02, 255
2019-098T04:02:11.994,   1, 180,   1,    30,   4,          0,     41.948,  99289.098,    28.900,   -38.348,     1.605,    81.371, 2, 5.486E-04, -1.00,   3,  3.154E-03,  2.486E-04,  1.506E-13,  5.998E-14,  2.980E+02,  1.187E+02, 255
2019-098T04:33:12.016,   1, 180,   1,    30,   4,          0,     41.948,  99289.098,    29.142,   -38.243,     1.602,    62.598, 2, 5.486E-04, -1.00,   3,  3.137E-03,  2.510E-04,  1.649E-13,  6.059E-14,  3.280E+02,  1.206E+02, 255
2019-098T04:33:42.016,   1, 180,   1,    30,   4,          0,     41.948,  99289.098,    29.146,   -38.241,     1.602,    62.295, 2, 5.486E-04, -1.00,   3,  2.952E-03,  2.576E-04,  4.410E-15,  5.886E-14,  9.325E+00,  1.245E+02, 255
2019-098T04:34:12.016,   1, 180,   1,    30,   4,          0,     41.948,  99289.098,    29.150,   -38.239,     1.602,    61.992, 2, 5.486E-04, -1.00,   3,  2.525E-03,  2.440E-04,  1.127E-13,  5.997E-14,  2.786E+02,  1.482E+02, 255
2019-098T04:34:42.017,   1, 180,   1,    30,   4,          0,     41.948,  99289.098,    29.154,   -38.238,     1.602,    61.690, 2, 5.486E-04, -1.00,   3,  2.488E-03,  2.367E-04,  1.458E-13,  5.966E-14,  3.658E+02,  1.496E+02, 255
2019-098T04:35:12.017,   1, 180,   1,    30,   4,          0,     41.948,  99289.098,    29.157,   -38.236,     1.602,    61.387, 2, 5.486E-04, -1.00,   3,  2.615E-03,  2.392E-04,  7.157E-14,  5.989E-14,  1.708E+02,  1.429E+02, 255
2019-098T04:35:42.017,   1, 180,   1,    30,   4,          0,     41.948,  99289.098,    29.161,   -38.234,     1.602,    61.084, 2, 5.486E-04, -1.00,   3,  2.412E-03,  2.397E-04,  9.143E-14,  6.081E-14,  2.365E+02,  1.573E+02, 255
2019-098T04:48:12.026,   1, 180,   1,    30,   4,          0,     41.948,  99289.098,    29.258,   -38.192,     1.601,    53.514, 2, 5.486E-04, -1.00,   3,  3.422E-03,  2.521E-04,  3.024E-13,  5.928E-14,  5.516E+02,  1.081E+02, 255
2019-098T04:48:42.026,   1, 180,   1,    30,   4,          0,     41.948,  99289.098,    29.262,   -38.191,     1.601,    53.212, 2, 5.486E-04, -1.00,   3,  2.881E-03,  2.595E-04,  2.156E-13,  6.080E-14,  4.671E+02,  1.317E+02, 255
2019-098T04:49:12.026,   1, 180,   1,    30,   4,          0,     41.948,  99289.098,    29.266,   -38.189,     1.601,    52.909, 2, 5.486E-04, -1.00,   3,  2.613E-03,  2.403E-04,  6.295E-14,  6.016E-14,  1.504E+02,  1.437E+02, 255
2019-098T04:49:42.027,   1, 180,   1,    30,   4,          0,     41.948,  99289.098,    29.270,   -38.187,     1.601,    52.606, 2, 5.486E-04, -1.00,   3,  3.011E-03,  2.522E-04,  7.227E-14,  5.792E-14,  1.498E+02,  1.201E+02, 255
2019-098T04:50:12.027,   1, 180,   1,    30,   4,          0,     41.948,  99289.098,    29.274,   -38.186,     1.601,    52.303, 2, 5.486E-04, -1.00,   3,  2.762E-03,  2.397E-04,  8.447E-14,  5.813E-14,  1.909E+02,  1.314E+02, 255
2019-098T04:50:42.028,   1, 180,   1,    30,   4,          0,     41.948,  99289.098,    29.278,   -38.184,     1.601,    52.001, 2, 5.486E-04, -1.00,   3,  2.286E-03,  2.295E-04,  4.230E-14,  5.864E-14,  1.155E+02,  1.601E+02, 255
2019-098T04:52:42.029,   1, 180,   1,    30,   4,          0,     41.948,  99289.098,    29.293,   -38.177,     1.601,    50.789, 2, 5.486E-04, -1.00,   3,  2.116E-03,  2.211E-04,  1.324E-13,  5.986E-14,  3.906E+02,  1.766E+02, 255
2019-098T04:53:12.029,   1, 180,   1,    30,   4,          0,     41.948,  99289.098,    29.297,   -38.176,     1.601,    50.487, 2, 5.486E-04, -1.00,   3,  2.288E-03,  2.312E-04,  6.210E-14,  5.954E-14,  1.694E+02,  1.624E+02, 255
2019-098T04:53:42.030,   1, 180,   1,    30,   4,          0,     41.948,  99289.098,    29.301,   -38.174,     1.601,    50.184, 2, 5.486E-04, -1.00,   3,  2.400E-03,  2.232E-04,  2.060E-13,  5.978E-14,  5.359E+02,  1.555E+02, 255
2019-098T04:54:12.030,   1, 180,   1,    30,   4,          0,     41.948,  99289.098,    29.305,   -38.173,     1.601,    49.881, 2, 5.486E-04, -1.00,   3,  2.954E-03,  2.428E-04,  3.117E-13,  5.906E-14,  6.584E+02,  1.248E+02, 255
2019-098T04:54:42.030,   1, 180,   1,    30,   4,          0,     41.948,  99289.098,    29.309,   -38.171,     1.601,    49.578, 2, 5.486E-04, -1.00,   3,  3.034E-03,  2.377E-04,  6.814E-14,  5.825E-14,  1.402E+02,  1.198E+02, 255
2019-098T04:55:42.031,   1, 180,   1,    30,   4,          0,     41.948,  99289.098,    29.317,   -38.168,     1.601,    48.973, 2, 5.486E-04, -1.00,   3,  2.571E-03,  2.400E-04,  6.006E-14,  5.936E-14,  1.458E+02,  1.441E+02, 255
2019-098T04:56:12.031,   1, 180,   1,    30,   4,          0,     41.948,  99289.098,    29.320,   -38.166,     1.601,    48.670, 2, 5.486E-04, -1.00,   3,  2.980E-03,  2.401E-04,  3.414E-13,  5.960E-14,  7.151E+02,  1.248E+02, 255
2019-098T04:56:42.032,   1, 180,   1,    30,   4,          0,     41.948,  99289.098,    29.324,   -38.164,     1.601,    48.367, 2, 5.486E-04, -1.00,   3,  2.458E-03,  2.282E-04,  9.221E-14,  5.895E-14,  2.342E+02,  1.497E+02, 255
2019-098T05:08:42.040,   1, 180,   1,    30,   4,          0,     41.948,  99289.098,    29.417,   -38.125,     1.600,    41.100, 2, 5.486E-04, -1.00,   3,  3.660E-03,  2.686E-04,  1.070E-13,  5.852E-14,  1.824E+02,  9.979E+01, 255
2019-098T05:09:12.040,   1, 180,   1,    30,   4,          0,     41.948,  99289.098,    29.421,   -38.123,     1.600,    40.798, 2, 5.486E-04, -1.00,   3,  3.010E-03,  2.544E-04,  1.152E-13,  5.919E-14,  2.389E+02,  1.227E+02, 255
2019-098T05:09:42.040,   1, 180,   1,    30,   4,          0,     41.948,  99289.098,    29.425,   -38.121,     1.600,    40.495, 2, 5.486E-04, -1.00,   3,  2.746E-03,  2.370E-04,  2.964E-14,  5.800E-14,  6.738E+01,  1.318E+02, 255
2019-098T05:14:12.044,   1, 180,   1,    30,   4,          0,     41.948,  99289.098,    29.460,   -38.106,     1.600,    37.770, 2, 5.486E-04, -1.00,   3,  2.813E-03,  2.483E-04,  9.482E-14,  5.795E-14,  2.104E+02,  1.286E+02, 255
2019-098T05:14:42.044,   1, 180,   1,    30,   4,          0,     41.948,  99289.098,    29.464,   -38.105,     1.600,    37.467, 2, 5.486E-04, -1.00,   3,  2.345E-03,  2.401E-04,  5.359E-16,  5.871E-14,  1.427E+00,  1.563E+02, 255
2019-098T05:15:12.044,   1, 180,   1,    30,   4,          0,     41.948,  99289.098,    29.468,   -38.103,     1.599,    37.164, 2, 5.486E-04, -1.00,   3,  2.658E-03,  2.353E-04,  2.243E-13,  5.939E-14,  5.267E+02,  1.395E+02, 255
2019-098T05:15:42.045,   1, 180,   1,    30,   4,          0,     41.948,  99289.098,    29.471,   -38.101,     1.599,    36.862, 2, 5.486E-04, -1.00,   3,  2.378E-03,  2.347E-04,  5.233E-14,  5.934E-14,  1.373E+02,  1.557E+02, 255
2019-098T11:59:42.321,   1, 180,   1,    30,   4,          0,     41.948,  99289.098,    32.490,   -36.898,     1.574,   152.263, 2, 5.486E-04, -1.00,   2,  2.285E-03,  2.029E-04,  3.703E-14,  4.560E-14,  1.011E+02,  1.246E+02, 255
2019-098T12:00:12.321,   1, 180,   1,    30,   4,          0,     41.948,  99289.098,    32.494,   -36.897,     1.574,   151.960, 2, 5.486E-04, -1.00,   2,  2.312E-03,  2.100E-04,  6.035E-15,  4.612E-14,  1.629E+01,  1.245E+02, 255
2019-098T12:00:42.322,   1, 180,   1,    30,   4,          0,     41.948,  99289.098,    32.498,   -36.895,     1.574,   151.658, 2, 5.486E-04, -1.00,   2,  2.249E-03,  2.038E-04,  1.787E-13,  4.594E-14,  4.962E+02,  1.275E+02, 255
2019-098T12:01:12.322,   1, 180,   1,    30,   4,          0,     41.948,  99289.098,    32.501,   -36.894,     1.574,   151.355, 2, 5.486E-04, -1.00,   2,  2.437E-03,  2.059E-04,  1.874E-13,  4.564E-14,  4.801E+02,  1.169E+02, 255
2019-098T12:08:42.327,   1, 180,   1,    30,   4,          0,     41.948,  99289.098,    32.555,   -36.874,     1.573,   146.815, 2, 5.486E-04, -1.00,   2,  2.851E-03,  2.235E-04,  9.275E-14,  4.578E-14,  2.031E+02,  1.002E+02, 255
2019-098T12:09:12.327,   1, 180,   1,    30,   4,          0,     41.948,  99289.098,    32.559,   -36.872,     1.573,   146.512, 2, 5.486E-04, -1.00,   2,  2.748E-03,  2.184E-04,  2.833E-14,  4.609E-14,  6.434E+01,  1.047E+02, 255
2019-098T12:09:42.328,   1, 180,   1,    30,   4,          0,     41.948,  99289.098,    32.563,   -36.871,     1.573,   146.210, 2, 5.486E-04, -1.00,   2,  3.267E-03,  2.312E-04,  7.474E-15,  4.568E-14,  1.428E+01,  8.726E+01, 255
2019-098T12:11:12.329,   1, 180,   1,    30,   4,          0,     41.948,  99289.098,    32.573,   -36.867,     1.573,   145.302, 2, 5.486E-04, -1.00,   2,  2.415E-03,  2.053E-04,  8.002E-14,  4.607E-14,  2.069E+02,  1.191E+02, 255
2019-098T12:11:42.329,   1, 180,   1,    30,   4,          0,     41.948,  99289.098,    32.577,   -36.866,     1.573,   144.999, 2, 5.486E-04, -1.00,   2,  2.788E-03,  2.133E-04,  2.177E-13,  4.643E-14,  4.874E+02,  1.040E+02, 255
2019-098T12:12:12.329,   1, 180,   1,    30,   4,          0,     41.948,  99289.098,    32.581,   -36.864,     1.573,   144.696, 2, 5.486E-04, -1.00,   2,  2.183E-03,  2.070E-04,  1.870E-14,  4.573E-14,  5.345E+01,  1.307E+02, 255
2019-098T12:12:42.330,   1, 180,   1,    30,   4,          0,     41.948,  99289.098,    32.584,   -36.863,     1.573,   144.394, 2, 5.486E-04, -1.00,   2,  2.407E-03,  2.016E-04,  1.376E-13,  4.585E-14,  3.568E+02,  1.189E+02, 255
2019-098T13:07:42.367,   1, 180,   1,    30,   4,          0,     41.948,  99289.098,    32.980,   -36.717,     1.570,   111.100, 2, 5.486E-04, -1.00,   3,  2.123E-03,  3.137E-04,  2.469E-14,  8.479E-14,  7.261E+01,  2.493E+02, 255
2019-098T13:08:12.368,   1, 180,   1,    30,   4,          0,     41.948,  99289.098,    32.983,   -36.715,     1.570,   110.798, 2, 5.486E-04, -1.00,   2,  2.733E-03,  2.112E-04,  1.028E-13,  4.603E-14,  2.347E+02,  1.051E+02, 255
2019-098T13:08:42.368,   1, 180,   1,    30,   4,          0,     41.948,  99289.098,    32.987,   -36.714,     1.570,   110.495, 2, 5.486E-04, -1.00,   3,  3.194E-03,  3.541E-04,  3.006E-13,  8.252E-14,  5.874E+02,  1.613E+02, 255
2019-098T13:09:12.368,   1, 180,   1,    30,   4,          0,     41.948,  99289.098,    32.990,   -36.713,     1.570,   110.192, 2, 5.486E-04, -1.00,   3,  2.644E-03,  3.150E-04,  3.005E-13,  8.451E-14,  7.092E+02,  1.995E+02, 255
2019-098T13:13:12.371,   1, 180,   1,    30,   4,          0,     41.948,  99289.098,    33.019,   -36.702,     1.570,   107.771, 2, 5.486E-04, -1.00,   3,  2.584E-03,  3.023E-04,  1.629E-13,  8.344E-14,  3.935E+02,  2.016E+02, 255
2019-098T13:13:42.371,   1, 180,   1,    30,   4,          0,     41.948,  99289.098,    33.023,   -36.701,     1.570,   107.469, 2, 5.486E-04, -1.00,   3,  2.327E-03,  3.023E-04,  1.535E-13,  8.173E-14,  4.118E+02,  2.192E+02, 255
2019-098T13:14:12.372,   1, 180,   1,    30,   4,          0,     41.948,  99289.098,    33.026,   -36.700,     1.570,   107.166, 2, 5.486E-04, -1.00,   3,  2.532E-03,  3.082E-04,  6.892E-14,  8.330E-14,  1.699E+02,  2.053E+02, 255
2019-098T13:14:42.372,   1, 180,   1,    30,   4,          0,     41.948,  99289.098,    33.030,   -36.698,     1.570,   106.863, 2, 5.486E-04, -1.00,   3,  2.411E-03,  3.239E-04,  1.167E-14,  8.343E-14,  3.021E+01,  2.160E+02, 255
2019-098T13:15:12.372,   1, 180,   1,    30,   4,          0,     41.948,  99289.098,    33.033,   -36.697,     1.570,   106.561, 2, 5.486E-04, -1.00,   3,  2.726E-03,  3.482E-04,  3.334E-14,  8.594E-14,  7.634E+01,  1.968E+02, 255
2019-098T13:34:42.386,   1, 180,   1,    30,   4,          0,     41.948,  99289.098,    33.173,   -36.646,     1.569,    94.757, 2, 5.486E-04, -1.00,   3,  2.032E-03,  2.643E-04,  4.719E-16,  6.682E-14,  1.450E+00,  2.053E+02, 255
2019-098T13:35:12.386,   1, 180,   1,    30,   4,          0,     41.948,  99289.098,    33.176,   -36.645,     1.569,    94.454, 2, 5.486E-04, -1.00,   3,  2.802E-03,  2.786E-04,  1.263E-13,  6.719E-14,  2.814E+02,  1.497E+02, 255
2019-098T13:35:42.386,   1, 180,   1,    30,   4,          0,     41.948,  99289.098,    33.180,   -36.644,     1.569,    94.152, 2, 5.486E-04, -1.00,   3,  2.457E-03,  2.854E-04,  1.206E-13,  7.337E-14,  3.064E+02,  1.864E+02, 255
2019-098T13:51:42.397,   1, 180,   1,    30,   4,          0,     41.948,  99289.098,    33.294,   -36.602,     1.568,    84.467, 2, 5.486E-04, -1.00,   3,  2.396E-03,  2.656E-04,  9.442E-14,  6.605E-14,  2.460E+02,  1.721E+02, 255
2019-098T13:52:12.398,   1, 180,   1,    30,   4,          0,     41.948,  99289.098,    33.297,   -36.601,     1.568,    84.164, 2, 5.486E-04, -1.00,   3,  2.380E-03,  2.623E-04,  5.483E-14,  6.462E-14,  1.438E+02,  1.695E+02, 255
2019-098T13:52:42.398,   1, 180,   1,    30,   4,          0,     41.948,  99289.098,    33.301,   -36.600,     1.567,    83.862, 2, 5.486E-04, -1.00,   3,  2.517E-03,  2.623E-04,  2.184E-13,  6.550E-14,  5.416E+02,  1.624E+02, 255
2019-098T13:56:12.400,   1, 180,   1,    30,   4,          0,     41.948,  99289.098,    33.326,   -36.591,     1.567,    81.743, 2, 5.486E-04, -1.00,   3,  2.422E-03,  2.661E-04,  1.025E-13,  6.503E-14,  2.641E+02,  1.676E+02, 255
2019-098T13:56:42.401,   1, 180,   1,    30,   4,          0,     41.948,  99289.098,    33.329,   -36.589,     1.567,    81.440, 2, 5.486E-04, -1.00,   3,  3.206E-03,  2.793E-04,  1.742E-13,  6.479E-14,  3.390E+02,  1.261E+02, 255
2019-098T13:57:12.401,   1, 180,   1,    30,   4,          0,     41.948,  99289.098,    33.333,   -36.588,     1.567,    81.138, 2, 5.486E-04, -1.00,   3,  2.660E-03,  2.823E-04,  7.077E-14,  6.420E-14,  1.661E+02,  1.506E+02, 255
2019-098T13:57:42.401,   1, 180,   1,    30,   4,          0,     41.948,  99289.098,    33.336,   -36.587,     1.567,    80.835, 2, 5.486E-04, -1.00,   3,  2.083E-03,  2.542E-04,  2.964E-14,  6.553E-14,  8.881E+01,  1.964E+02, 255
2019-098T13:58:12.402,   1, 180,   1,    30,   4,          0,     41.948,  99289.098,    33.340,   -36.586,     1.567,    80.532, 2, 5.486E-04, -1.00,   3,  2.665E-03,  2.578E-04,  1.549E-13,  6.616E-14,  3.628E+02,  1.549E+02, 255
2019-098T14:03:42.406,   1, 180,   1,    30,   4,          0,     41.948,  99289.098,    33.379,   -36.571,     1.567,    77.203, 2, 5.486E-04, -1.00,   3,  2.716E-03,  2.583E-04,  1.730E-13,  6.455E-14,  3.976E+02,  1.483E+02, 255
2019-098T14:04:12.406,   1, 180,   1,    30,   4,          0,     41.948,  99289.098,    33.383,   -36.570,     1.567,    76.901, 2, 5.486E-04, -1.00,   3,  2.853E-03,  2.635E-04,  4.326E-13,  6.695E-14,  9.464E+02,  1.465E+02, 255
2019-098T14:04:42.406,   1, 180,   1,    30,   4,          0,     41.948,  99289.098,    33.386,   -36.569,     1.567,    76.598, 2, 5.486E-04, -1.00,   3,  2.811E-03,  2.627E-04,  3.285E-13,  6.492E-14,  7.295E+02,  1.442E+02, 255
2019-098T14:24:42.420,   1, 180,   1,    30,   4,          0,     41.948,  99289.098,    33.528,   -36.518,     1.566,    64.492, 2, 5.486E-04, -1.00,   3,  2.449E-03,  2.357E-04,  8.871E-14,  6.299E-14,  2.261E+02,  1.605E+02, 255
2019-098T14:25:12.420,   1, 180,   1,    30,   4,          0,     41.948,  99289.098,    33.531,   -36.517,     1.566,    64.189, 2, 5.486E-04, -1.00,   3,  2.764E-03,  2.510E-04,  1.036E-13,  6.217E-14,  2.341E+02,  1.404E+02, 255
2019-098T14:25:42.421,   1, 180,   1,    30,   4,          0,     41.948,  99289.098,    33.535,   -36.515,     1.566,    63.887, 2, 5.486E-04, -1.00,   3,  2.011E-03,  2.433E-04,  2.554E-14,  6.312E-14,  7.924E+01,  1.959E+02, 255
2019-098T14:26:12.421,   1, 180,   1,    30,   4,          0,     41.948,  99289.098,    33.539,   -36.514,     1.566,    63.584, 2, 5.486E-04, -1.00,   3,  2.040E-03,  2.345E-04,  1.153E-13,  6.146E-14,  3.527E+02,  1.880E+02, 255
2019-098T14:26:42.421,   1, 180,   1,    30,   4,          0,     41.948,  99289.098,    33.542,   -36.513,     1.566,    63.281, 2, 5.486E-04, -1.00,   3,  2.649E-03,  2.517E-04,  2.055E-13,  6.335E-14,  4.840E+02,  1.492E+02, 255
2019-098T14:44:42.434,   1, 180,   1,    30,   4,          0,     41.948,  99289.098,    33.669,   -36.467,     1.565,    52.386, 2, 5.486E-04, -1.00,   3,  2.647E-03,  2.442E-04,  2.571E-13,  6.148E-14,  6.060E+02,  1.449E+02, 255
2019-098T14:45:12.434,   1, 180,   1,    30,   4,          0,     41.948,  99289.098,    33.673,   -36.466,     1.565,    52.084, 2, 5.486E-04, -1.00,   3,  2.334E-03,  2.446E-04,  1.509E-13,  6.258E-14,  4.036E+02,  1.674E+02, 255
2019-098T14:45:42.434,   1, 180,   1,    30,   4,          0,     41.948,  99289.098,    33.676,   -36.465,     1.565,    51.781, 2, 5.486E-04, -1.00,   3,  2.597E-03,  2.517E-04,  1.254E-13,  6.352E-14,  3.014E+02,  1.526E+02, 255
2019-098T14:46:12.435,   1, 180,   1,    30,   4,          0,     41.948,  99289.098,    33.680,   -36.463,     1.565,    51.478, 2, 5.486E-04, -1.00,   3,  2.131E-03,  2.381E-04,  2.710E-14,  6.231E-14,  7.937E+01,  1.825E+02, 255
2019-098T14:46:42.435,   1, 180,   1,    30,   4,          0,     41.948,  99289.098,    33.683,   -36.462,     1.565,    51.176, 2, 5.486E-04, -1.00,   3,  2.534E-03,  2.510E-04,  1.887E-13,  6.203E-14,  4.649E+02,  1.528E+02, 255
2019-098T15:14:12.454,   1, 180,   1,    30,   4,          0,     41.948,  99289.098,    33.877,   -36.393,     1.563,    34.531, 2, 5.486E-04, -1.00,   3,  2.788E-03,  2.406E-04,  1.467E-13,  6.118E-14,  3.283E+02,  1.369E+02, 255
2019-098T15:14:42.454,   1, 180,   1,    30,   4,          0,     41.948,  99289.098,    33.881,   -36.392,     1.563,    34.228, 2, 5.486E-04, -1.00,   3,  2.309E-03,  2.296E-04,  1.724E-13,  6.011E-14,  4.660E+02,  1.625E+02, 255
2019-098T15:15:12.454,   1, 180,   1,    30,   4,          0,     41.948,  99289.098,    33.884,   -36.391,     1.563,    33.925, 2, 5.486E-04, -1.00,   3,  2.242E-03,  2.383E-04,  2.676E-13,  6.319E-14,  7.451E+02,  1.759E+02, 255
2019-098T15:15:42.455,   1, 180,   1,    30,   4,          0,     41.948,  99289.098,    33.888,   -36.390,     1.563,    33.623, 2, 5.486E-04, -1.00,   3,  2.418E-03,  2.422E-04,  8.092E-14,  6.024E-14,  2.089E+02,  1.555E+02, 255
2019-098T15:23:12.460,   1, 180,   1,    30,   4,          0,     41.948,  99289.098,    33.940,   -36.371,     1.563,    29.083, 2, 5.486E-04, -1.00,   3,  2.561E-03,  2.522E-04,  1.069E-13,  6.184E-14,  2.606E+02,  1.507E+02, 255
2019-098T15:23:42.460,   1, 180,   1,    30,   4,          0,     41.948,  99289.098,    33.944,   -36.370,     1.563,    28.781, 2, 5.486E-04, -1.00,   3,  2.543E-03,  2.563E-04,  1.118E-13,  6.157E-14,  2.744E+02,  1.511E+02, 255
2019-098T15:24:12.461,   1, 180,   1,    30,   4,          0,     41.948,  99289.098,    33.947,   -36.369,     1.563,    28.478, 2, 5.486E-04, -1.00,   3,  2.511E-03,  2.335E-04,  1.024E-13,  6.097E-14,  2.545E+02,  1.516E+02, 255
2019-098T15:29:12.464,   1, 180,   1,    30,   4,          0,     41.948,  99289.098,    33.982,   -36.356,     1.562,    25.452, 2, 5.486E-04, -1.00,   3,  2.360E-03,  2.575E-04,  1.920E-16,  6.199E-14,  5.077E-01,  1.639E+02, 255
2019-098T15:29:42.464,   1, 180,   1,    30,   4,          0,     41.948,  99289.098,    33.986,   -36.355,     1.562,    25.149, 2, 5.486E-04, -1.00,   3,  2.571E-03,  2.529E-04,  2.576E-13,  6.322E-14,  6.253E+02,  1.535E+02, 255
2019-098T15:30:12.465,   1, 180,   1,    30,   4,          0,     41.948,  99289.098,    33.989,   -36.354,     1.562,    24.846, 2, 5.486E-04, -1.00,   3,  2.508E-03,  2.469E-04,  4.746E-14,  6.135E-14,  1.181E+02,  1.527E+02, 255
2019-098T15:30:42.465,   1, 180,   1,    30,   4,          0,     41.948,  99289.098,    33.993,   -36.352,     1.562,    24.544, 2, 5.486E-04, -1.00,   3,  2.361E-03,  2.509E-04,  2.521E-14,  6.174E-14,  6.665E+01,  1.632E+02, 255
2019-098T15:42:42.473,   1, 180,   1,    30,   4,          0,     41.948,  99289.098,    34.077,   -36.323,     1.562,    17.281, 2, 5.486E-04, -1.00,   3,  2.230E-03,  2.454E-04,  1.190E-13,  6.165E-14,  3.330E+02,  1.726E+02, 255
2019-098T15:43:12.474,   1, 180,   1,    30,   4,          0,     41.948,  99289.098,    34.081,   -36.322,     1.562,    16.978, 2, 5.486E-04, -1.00,   3,  2.216E-03,  2.365E-04,  1.553E-13,  6.074E-14,  4.374E+02,  1.711E+02, 255
2019-098T15:43:42.474,   1, 180,   1,    30,   4,          0,     41.948,  99289.098,    34.084,   -36.320,     1.562,    16.675, 2, 5.486E-04, -1.00,   3,  2.481E-03,  2.546E-04,  1.299E-13,  6.185E-14,  3.268E+02,  1.556E+02, 255
2019-098T15:49:12.478,   1, 180,   1,    30,   4,          0,     41.948,  99289.098,    34.122,   -36.307,     1.561,    13.346, 2, 5.486E-04, -1.00,   3,  2.861E-03,  2.589E-04,  9.556E-14,  6.175E-14,  2.085E+02,  1.347E+02, 255
2019-098T15:49:42.478,   1, 180,   1,    30,   4,          0,     41.948,  99289.098,    34.126,   -36.306,     1.561,    13.044, 2, 5.486E-04, -1.00,   3,  2.411E-03,  2.415E-04,  4.197E-14,  6.133E-14,  1.086E+02,  1.588E+02, 255
2019-098T15:50:12.478,   1, 180,   1,    30,   4,          0,     41.948,  99289.098,    34.129,   -36.304,     1.561,    12.741, 2, 5.486E-04, -1.00,   3,  2.567E-03,  2.489E-04,  1.403E-13,  6.392E-14,  3.411E+02,  1.554E+02, 255
2019-098T16:07:12.490,   1, 180,   1,    30,   4,          0,     41.948,  99289.098,    34.248,   -36.263,     1.561,     2.452, 2, 5.486E-04, -1.00,   3,  2.825E-03,  2.551E-04,  4.788E-14,  6.189E-14,  1.058E+02,  1.368E+02, 255
2019-098T16:07:42.490,   1, 180,   1,    30,   4,          0,     41.948,  99289.098,    34.252,   -36.262,     1.561,     2.149, 2, 5.486E-04, -1.00,   3,  2.926E-03,  2.587E-04,  1.579E-13,  6.188E-14,  3.370E+02,  1.320E+02, 255
2019-098T16:08:12.491,   1, 180,   1,    30,   4,          0,     41.948,  99289.098,    34.255,   -36.260,     1.561,     1.846, 2, 5.486E-04, -1.00,   3,  3.053E-03,  2.888E-04,  1.503E-13,  6.458E-14,  3.073E+02,  1.320E+02, 255
2019-098T16:12:12.493,   1, 180,   1,    30,   4,          0,     41.948,  99289.098,    34.283,   -36.251,     1.560,   359.425, 2, 5.486E-04, -1.00,   3,  2.390E-03,  2.560E-04,  5.059E-15,  6.444E-14,  1.321E+01,  1.683E+02, 255
2019-098T16:12:42.494,   1, 180,   1,    30,   4,          0,     41.948,  99289.098,    34.287,   -36.249,     1.560,   359.123, 2, 5.486E-04, -1.00,   3,  2.377E-03,  2.535E-04,  1.524E-13,  6.508E-14,  4.002E+02,  1.709E+02, 255
2019-098T16:13:12.494,   1, 180,   1,    30,   4,          0,     41.948,  99289.098,    34.290,   -36.248,     1.560,   358.820, 2, 5.486E-04, -1.00,   3,  2.425E-03,  2.556E-04,  5.262E-14,  6.517E-14,  1.354E+02,  1.677E+02, 255
2019-098T16:13:42.494,   1, 180,   1,    30,   4,          0,     41.948,  99289.098,    34.293,   -36.247,     1.560,   358.518, 2, 5.486E-04, -1.00,   3,  2.182E-03,  2.493E-04,  5.455E-14,  6.505E-14,  1.560E+02,  1.860E+02, 255
2019-098T16:20:12.499,   1, 180,   1,    30,   4,          0,     41.948,  99289.098,    34.339,   -36.231,     1.560,   354.583, 2, 5.486E-04, -1.00,   3,  2.271E-03,  2.678E-04,  1.579E-13,  6.566E-14,  4.339E+02,  1.805E+02, 255